Weather History for KEYW - February, 2014

Change the Weather History Date:

Monday, February 3, 2014

  Actual Average Record
Temperature  
Mean Temperature 78 °F 70 °F  
Max Temperature 81 °F 75 °F 85 °F (1957)
Min Temperature 75 °F 65 °F 44 °F (1917)
Degree Days  
Heating Degree Days 0 1  
Month to date heating degree days 0 3  
Since 1 July heating degree days 22 54  
Cooling Degree Days 13 6  
Month to date cooling degree days 35 18  
Year to date cooling degree days 192 183  
Growing Degree Days 28 (Base 50)    
Moisture  
Dew Point 73 °F    
Average Humidity 87    
Maximum Humidity 94    
Minimum Humidity 79    
Precipitation  
Precipitation 0.00 in 0.06 in 1.01 in (1970)
Month to date precipitation T 0.17  
Year to date precipitation 6.68 2.21  
Snow  
Snow 0.00 in - - ()
Month to date snowfall 0.0  
Since 1 July snowfall 0.0  
Snow Depth 0.00 in    
Sea Level Pressure  
Sea Level Pressure 30.06 in    
Wind  
Wind Speed 10 mph (ESE)    
Max Wind Speed 16 mph    
Max Gust Speed 25 mph    
Visibility 10 miles    
Events      
T = Trace of Precipitation, MM = Missing Value Source: NWS Daily Summary

Daily Weather History Graph

Daily Weather History Graph

Search for Another Location

Airport or City:

Trip Planner

Search our weather history database for the weather conditions in past years. The results will help you decide how hot, cold, wet, or windy it might be!

Date:

Astronomy

Feb. 03, 2014 Rise Set
Actual Time 7:08 AM EST 6:13 PM EST
Civil Twilight 6:44 AM EST 6:37 PM EST
Nautical Twilight 6:17 AM EST 7:04 PM EST
Astronomical Twilight 5:50 AM EST 7:31 PM EST
Moon 9:41 AM EST (2/3) 10:26 PM EST (2/3)
Length of Visible Light 11h 53m
Length of Day
11h 05m
Waxing Crescent, 19% of the Moon is Illuminated
Feb 3
Waxing Crescent
Feb 6
First Quarter
Feb 14
Full
Feb 22
Last Quarter
Mar 1
New

Hourly Weather History & Observations

Time (EST) Temp. Heat Index Dew Point Humidity Pressure Visibility Wind Dir Wind Speed Gust Speed Precip Events Conditions
12:53 AM 75.9 °F - 71.1 °F 85% 30.04 in 10.0 mi SE 11.5 mph - N/A   Clear
1:53 AM 75.9 °F - 71.1 °F 85% 30.04 in 10.0 mi ESE 13.8 mph - N/A   Scattered Clouds
2:53 AM 75.9 °F - 71.1 °F 85% 30.02 in 10.0 mi ESE 13.8 mph - N/A   Clear
3:53 AM 75.9 °F - 71.1 °F 85% 30.02 in 10.0 mi ESE 10.4 mph - N/A   Partly Cloudy
4:53 AM 75.9 °F - 71.1 °F 85% 30.02 in 10.0 mi SE 11.5 mph - N/A   Scattered Clouds
5:53 AM 75.9 °F - 71.1 °F 85% 30.03 in 10.0 mi SE 10.4 mph - N/A   Clear
6:53 AM 75.9 °F - 72.0 °F 87% 30.05 in 10.0 mi SE 10.4 mph - N/A   Scattered Clouds
7:53 AM 75.9 °F - 72.0 °F 87% 30.06 in 10.0 mi ESE 9.2 mph - N/A   Partly Cloudy
8:53 AM 78.1 °F - 72.0 °F 81% 30.08 in 10.0 mi SE 11.5 mph - N/A   Clear
9:53 AM 78.1 °F - 73.0 °F 84% 30.09 in 10.0 mi SE 11.5 mph - N/A   Partly Cloudy
10:10 AM 79.0 °F - 73.0 °F 82% 30.10 in 10.0 mi SE 10.4 mph - N/A   Mostly Cloudy
10:17 AM 79.0 °F - 73.0 °F 82% 30.10 in 10.0 mi SE 10.4 mph - N/A   Scattered Clouds
10:53 AM 80.1 °F 84.2 °F 73.0 °F 79% 30.10 in 10.0 mi SE 10.4 mph - N/A   Clear
11:53 AM 81.0 °F 86.2 °F 73.9 °F 79% 30.09 in 10.0 mi SE 8.1 mph - N/A   Partly Cloudy
12:53 PM 81.0 °F 86.2 °F 73.9 °F 79% 30.07 in 10.0 mi ESE 8.1 mph - N/A   Partly Cloudy
1:53 PM 81.0 °F 85.8 °F 73.0 °F 77% 30.05 in 10.0 mi ESE 8.1 mph - N/A   Clear
2:53 PM 80.1 °F 84.5 °F 73.9 °F 81% 30.03 in 10.0 mi ESE 9.2 mph - N/A   Clear
3:53 PM 79.0 °F - 73.0 °F 82% 30.02 in 10.0 mi ESE 8.1 mph - N/A   Clear
4:53 PM 79.0 °F - 73.0 °F 82% 30.02 in 10.0 mi East 8.1 mph - N/A   Clear
5:53 PM 78.1 °F - 72.0 °F 81% 30.03 in 10.0 mi East 8.1 mph - N/A   Clear
6:53 PM 77.0 °F - 73.0 °F 88% 30.04 in 10.0 mi East 8.1 mph - N/A   Clear
7:53 PM 75.9 °F - 73.0 °F 91% 30.05 in 10.0 mi East 6.9 mph - N/A   Clear
8:53 PM 75.9 °F - 73.0 °F 91% 30.06 in 10.0 mi East 6.9 mph - N/A   Scattered Clouds
9:53 PM 75.9 °F - 73.0 °F 91% 30.07 in 10.0 mi East 8.1 mph - N/A   Partly Cloudy
10:28 PM 75.9 °F - 73.0 °F 91% 30.08 in 10.0 mi East 9.2 mph - N/A   Mostly Cloudy
10:42 PM 75.9 °F - 73.0 °F 91% 30.08 in 10.0 mi East 6.9 mph - N/A   Overcast
10:53 PM 75.9 °F - 73.0 °F 91% 30.08 in 10.0 mi East 9.2 mph - N/A   Overcast
11:05 PM 75.9 °F - 73.0 °F 91% 30.08 in 10.0 mi East 9.2 mph - N/A   Overcast
11:53 PM 75.9 °F - 73.0 °F 91% 30.07 in 10.0 mi East 8.1 mph - N/A   Partly Cloudy